[[{"header":{"parameterUnit":"m.s-1","parameterCategory":1,"la1":30.2991,"la2":30.254,"lo1":-89.0895,"lo2":-89.0444,"dy":0.0017,"dx":0.0017,"nx":28,"ny":28,"refTime":"2025-04-02T09:00:00:Z","depth":0,"parameterNumber":2,"parameterNumberName":"U-component_of_WINDS"},"data":[0,0,0,0,0,0,0,0,0,0,0,0,0,0,0,0,0,0,0,0,0,0,0,0,0,0,0,0,0,0,0,0,0,0,0,0,0,0,0,0,0,0,0,0,0,0,0,0,0,0,0,0,0,0,0,0,0,0,-6.0876,-6.0878,0,-6.1044,-6.1045,-6.1047,-6.1059,-6.1058,-6.1056,-6.1054,-6.1221,-6.1227,-6.1233,0,0,0,0,0,0,0,0,0,0,0,0,0,-6.0564,-6.057,-6.0876,-6.0878,-6.088,-6.1043,-6.1046,-6.1048,-6.106,-6.1057,-6.1055,-6.1053,-6.1219,-6.1227,-6.1234,0,0,0,0,0,0,0,0,0,0,0,0,0,-6.0712,-6.0571,-6.0876,-6.0906,-6.091,-6.1043,-6.1046,-6.1048,-6.106,-6.1057,-6.1055,-6.1052,-6.1217,-6.1226,-6.1235,-6.1348,0,0,-6.1263,-6.1267,0,0,0,0,0,0,0,0,-6.0704,-6.0724,-6.0899,-6.0904,-6.0909,-6.1028,-6.0997,-6.1149,-6.1061,-6.1003,-6.1054,-6.1051,-6.1159,-6.1173,-6.121,-6.1355,-6.1363,-6.1264,-6.127,-6.1274,-6.1276,0,0,0,0,0,0,0,-6.0693,-6.0716,-6.0942,-6.0902,-6.0908,-6.091,-6.0928,-6.1026,-6.1094,-6.1008,-6.1009,-6.1029,-6.1161,-6.1201,-6.1214,-6.1365,-6.1264,-6.1272,-6.1278,-6.1281,-6.1611,-6.1614,0,0,0,0,0,0,-6.0678,-6.0708,-6.0937,-6.0947,-6.0798,-6.0918,-6.0938,-6.0992,-6.1093,-6.1106,-6.1031,-6.1029,-6.1187,-6.1203,-6.122,-6.1357,-6.1274,-6.1282,-6.1288,-6.1608,-6.1611,-6.1615,0,0,0,0,0,0,-6.0671,-6.0698,-6.093,-6.0828,-6.0858,-6.0927,-6.0987,-6.0997,-6.1037,-6.1111,-6.1123,-6.106,-6.1185,-6.1207,-6.1316,-6.1363,-6.1287,-6.1295,-6.1604,-6.1609,-6.1613,-6.1633,0,0,0,0,0,0,-6.0662,-6.0696,-6.0739,-6.0829,-6.0863,-6.1024,-6.099,-6.1003,-6.1054,-6.1052,-6.1141,-6.1153,-6.1185,-6.1302,-6.1325,-6.1375,-6.1302,-6.16,-6.1606,-6.1612,-6.1628,-6.1638,-6.1646,0,0,0,0,0,-6.0651,-6.0738,-6.0742,-6.0769,-6.092,-6.1027,-6.1046,-6.1082,-6.1058,-6.1102,-6.1149,-6.115,-6.1355,-6.1313,-6.1339,-6.1392,-6.1597,-6.1604,-6.1611,-6.1624,-6.1636,-6.1646,0,0,0,0,0,0,-6.065,-6.075,-6.0755,-6.0874,-6.0942,-6.1028,-6.1085,-6.1093,-6.1168,-6.1164,-6.1204,-6.1224,-6.1331,-6.1373,-6.1325,-6.1506,-6.1473,-6.1486,-6.1474,-6.1486,-6.1495,-6.1481,-6.131,0,0,0,0,0,-6.0664,-6.0743,-6.0826,-6.0923,-6.0957,-6.1015,-6.1063,-6.1085,-6.1157,-6.1185,-6.1241,-6.1309,-6.1389,-6.144,-6.1518,-6.1636,-6.1655,-6.1686,-6.1694,-6.1701,-6.171,-6.1775,-6.1789,-6.1639,-6.1638,-6.1638,0,0,-6.0692,-6.0757,-6.0804,-6.0924,-6.0979,-6.106,-6.1039,-6.1125,-6.1185,-6.1198,-6.1304,-6.1348,-6.1427,-6.154,-6.1593,-6.1578,-6.1757,-6.171,-6.1715,-6.1721,-6.1784,-6.1798,-6.1811,-6.1643,-6.1643,-6.1642,0,0,-6.0785,-6.0843,-6.0929,-6.0986,-6.1071,-6.1109,-6.113,-6.1217,-6.1246,-6.1354,-6.1366,-6.1438,-6.1575,-6.163,-6.1676,-6.1793,-6.1796,-6.1818,-6.1862,-6.1925,-6.1937,-6.1947,-6.1987,-6.2001,-6.1828,-6.1828,-6.1828,0,-6.0809,-6.0932,-6.0972,-6.1058,-6.111,-6.1129,-6.1215,-6.1268,-6.1373,-6.1408,-6.1391,-6.1564,-6.1619,-6.1745,-6.1774,-6.1812,-6.1836,-6.1806,-6.1932,-6.1943,-6.1954,-6.1992,-6.2007,-6.183,-6.1829,-6.1829,-6.1829,0,-6.0956,-6.1041,-6.1101,-6.1204,-6.1263,-6.1349,-6.1401,-6.1457,-6.1475,-6.1515,-6.1624,-6.1692,-6.1783,-6.1815,-6.1833,-6.1945,-6.1933,-6.1924,-6.1891,-6.1969,-6.2005,-6.2021,-6.1832,-6.1832,-6.1831,-6.1831,0,0,-6.1049,-6.1175,-6.1196,-6.1243,-6.1339,-6.1405,-6.1493,-6.1584,-6.1629,-6.1702,-6.1775,-6.1892,-6.1885,-6.1937,-6.1962,-6.2018,-6.2104,-6.2002,-6.2004,-6.2016,-6.2229,-6.2233,-6.2249,-6.2109,-6.2112,-6.2114,-6.2222,0,-6.115,-6.1306,-6.1346,-6.1479,-6.1557,-6.1578,-6.1654,-6.172,-6.1761,-6.1833,-6.1879,-6.196,-6.1945,-6.1977,-6.2033,-6.2081,-6.2147,-6.2075,-6.2174,-6.2177,-6.215,-6.2269,-6.2273,-6.2371,-6.2236,-6.2239,-6.2241,0,-6.1288,-6.1365,-6.1506,-6.1593,-6.1627,-6.1695,-6.1782,-6.1851,-6.1928,-6.1953,-6.2014,-6.2034,-6.2125,-6.209,-6.2215,-6.2165,-6.2209,-6.224,-6.2245,-6.2252,-6.2211,-6.2276,-6.2403,-6.2417,-6.2264,-6.2262,-6.226,0,-6.1338,-6.1478,-6.158,-6.162,-6.1724,-6.1771,-6.1817,-6.1891,-6.1943,-6.202,-6.2054,-6.2139,-6.2185,-6.2251,-6.2293,-6.2265,-6.2414,-6.2384,-6.2437,-6.2435,-6.2464,-6.2461,-6.2596,-6.2498,-6.2498,-6.2497,-6.2497,0,-6.1444,-6.1529,-6.1604,-6.1666,-6.1762,-6.1808,-6.19,-6.1947,-6.2013,-6.2084,-6.2108,-6.2174,-6.2228,-6.2301,-6.2335,-6.2432,-6.2454,-6.2476,-6.2483,-6.2472,-6.2469,-6.2498,-6.2491,-6.2501,-6.25,-6.25,-6.2499,0,-6.1514,-6.1568,-6.1681,-6.1772,-6.1797,-6.1863,-6.194,-6.2001,-6.2044,-6.2134,-6.2158,-6.2225,-6.2312,-6.2363,-6.2473,-6.2496,-6.2603,-6.2609,-6.2577,-6.258,-6.2629,-6.2622,-6.2785,-6.2808,-6.2697,-6.2698,-6.2699,0,-6.1577,-6.1643,-6.1742,-6.1792,-6.1838,-6.1919,-6.1973,-6.2022,-6.2077,-6.217,-6.222,-6.231,-6.2383,-6.2522,-6.258,-6.2665,-6.2671,-6.2722,-6.2683,-6.267,-6.2668,-6.2662,-6.2668,-6.2727,-6.2728,-6.2729,-6.273,0,-6.1682,-6.1706,-6.1783,-6.1871,-6.1936,-6.2007,-6.2077,-6.2117,-6.2177,-6.2238,-6.2329,-6.2386,-6.25,-6.2588,-6.2678,-6.2724,-6.2736,-6.2743,-6.2759,-6.2745,-6.2723,-6.2733,-6.2592,-6.2737,-6.2736,-6.2736,-6.2736,-6.2735,-6.1748,-6.1807,-6.1886,-6.1972,-6.2031,-6.2097,-6.2159,-6.2211,-6.2288,-6.2385,-6.2409,-6.2504,-6.258,-6.2702,-6.2751,-6.2825,-6.2816,-6.284,-6.2846,-6.285,-6.285,-6.2715,-6.2842,-6.2842,-6.2842,-6.2842,-6.2842,0,-6.1852,-6.1904,-6.1983,-6.2082,-6.215,-6.2159,-6.2238,-6.2293,-6.2377,-6.2448,-6.2521,-6.2625,-6.2711,-6.2777,-6.2865,-6.2912,-6.292,-6.2933,-6.2928,-6.2939,-6.2855,-6.2831,-6.2925,-6.2925,-6.2925,-6.2925,-6.2925,-6.2925,-6.1913,-6.2013,-6.2047,-6.2177,-6.2229,-6.2323,-6.2367,-6.2428,-6.2485,-6.26,-6.2673,-6.2716,-6.2785,-6.2879,-6.2958,-6.2975,-6.3005,-6.3017,-6.3035,-6.2954,-6.2945,-6.2936,-6.2913,-6.3024,-6.3024,-6.3112,-6.3113,-6.3113]},{"header":{"parameterUnit":"m.s-1","parameterCategory":1,"la1":30.2991,"la2":30.254,"lo1":-89.0895,"lo2":-89.0444,"dy":0.0017,"dx":0.0017,"nx":28,"ny":28,"refTime":"2025-04-02T09:00:00:Z","depth":0,"parameterNumber":3,"parameterNumberName":"V-component_of_WINDS"},"data":[0,0,0,0,0,0,0,0,0,0,0,0,0,0,0,0,0,0,0,0,0,0,0,0,0,0,0,0,0,0,0,0,0,0,0,0,0,0,0,0,0,0,0,0,0,0,0,0,0,0,0,0,0,0,0,0,0,0,4.1488,4.149,0,4.1675,4.1677,4.1679,4.1742,4.1741,4.174,4.174,4.193,4.1935,4.1941,0,0,0,0,0,0,0,0,0,0,0,0,0,4.1189,4.1194,4.1488,4.149,4.1493,4.1674,4.1677,4.1679,4.1742,4.1741,4.174,4.1739,4.1928,4.1935,4.1942,0,0,0,0,0,0,0,0,0,0,0,0,0,4.1341,4.1196,4.1488,4.1546,4.1553,4.1674,4.1677,4.168,4.1742,4.1741,4.174,4.1739,4.1926,4.1934,4.1943,4.2019,0,0,4.1969,4.1973,0,0,0,0,0,0,0,0,4.1333,4.1352,4.1535,4.1542,4.155,4.1684,4.1641,4.1794,4.1742,4.167,4.174,4.1738,4.1849,4.1864,4.1901,4.2028,4.2036,4.197,4.1975,4.1979,4.1981,0,0,0,0,0,0,0,4.1322,4.1345,4.1562,4.1538,4.1547,4.1564,4.1584,4.167,4.1764,4.1677,4.1682,4.1703,4.1853,4.1893,4.1906,4.2039,4.197,4.1977,4.1983,4.1986,4.2242,4.2244,0,0,0,0,0,0,4.1302,4.1335,4.1556,4.1567,4.1436,4.157,4.1593,4.1642,4.1763,4.178,4.1704,4.1705,4.1878,4.1896,4.1913,4.2013,4.1979,4.1987,4.1992,4.2241,4.2242,4.2244,0,0,0,0,0,0,4.1295,4.1321,4.1548,4.1453,4.1483,4.1576,4.1631,4.1646,4.1686,4.1783,4.18,4.1727,4.1878,4.1901,4.1993,4.2021,4.1991,4.1999,4.2239,4.2241,4.2243,4.2212,0,0,0,0,0,0,4.1286,4.1318,4.1347,4.1453,4.1488,4.1624,4.1633,4.1651,4.1701,4.1705,4.181,4.1826,4.1879,4.198,4.2002,4.2032,4.2005,4.2237,4.224,4.2243,4.2211,4.2213,4.2215,0,0,0,0,0,4.1275,4.1329,4.1348,4.1374,4.1526,4.1626,4.1646,4.1706,4.1703,4.1734,4.1797,4.1823,4.2014,4.1989,4.2014,4.2047,4.2235,4.2239,4.2242,4.221,4.2213,4.2215,0,0,0,0,0,0,4.1222,4.1344,4.1366,4.1456,4.1531,4.1636,4.1677,4.1706,4.1782,4.1782,4.1853,4.1877,4.1964,4.2015,4.1985,4.213,4.2126,4.2135,4.2093,4.2097,4.2098,4.2085,4.2013,0,0,0,0,0,4.1222,4.1292,4.1395,4.1464,4.1501,4.1582,4.1628,4.1668,4.1748,4.1779,4.1849,4.1925,4.2003,4.2052,4.2129,4.2219,4.2245,4.2255,4.2257,4.2258,4.2265,4.232,4.2327,4.2256,4.2256,4.2256,0,0,4.122,4.1295,4.1335,4.1456,4.1518,4.1591,4.1608,4.1683,4.1738,4.179,4.1883,4.1937,4.2027,4.212,4.2164,4.2164,4.229,4.2262,4.2263,4.2269,4.2324,4.2331,4.2337,4.2259,4.2258,4.2258,0,0,4.1254,4.1317,4.1384,4.1447,4.1542,4.1597,4.1613,4.1715,4.1754,4.1848,4.189,4.1957,4.2088,4.2152,4.2201,4.2265,4.2293,4.2288,4.2298,4.2351,4.2357,4.2362,4.2387,4.2395,4.2295,4.2295,4.2295,0,4.124,4.1351,4.1415,4.1489,4.1543,4.1595,4.1665,4.1722,4.1837,4.1873,4.1872,4.2042,4.2106,4.2216,4.2232,4.2269,4.2292,4.2276,4.2351,4.2357,4.2363,4.2388,4.2397,4.2294,4.2294,4.2294,4.2294,0,4.1331,4.1407,4.145,4.1561,4.1619,4.169,4.1767,4.1818,4.1855,4.191,4.2007,4.2086,4.2182,4.2211,4.2246,4.2327,4.2325,4.2337,4.2335,4.2367,4.2392,4.2402,4.2292,4.2292,4.2293,4.2293,0,0,4.1335,4.1484,4.1498,4.1551,4.1661,4.1722,4.1797,4.1892,4.1936,4.2014,4.2081,4.2193,4.2206,4.2262,4.2305,4.2352,4.2401,4.2359,4.2362,4.2365,4.2499,4.2491,4.25,4.242,4.2422,4.2424,4.2493,0,4.1385,4.1522,4.1584,4.1693,4.1766,4.1819,4.1885,4.1961,4.2015,4.2086,4.2147,4.2226,4.2236,4.2271,4.2319,4.2384,4.2429,4.238,4.2484,4.2487,4.2461,4.2513,4.2504,4.2564,4.2502,4.2504,4.2505,0,4.1461,4.1542,4.1659,4.1765,4.1798,4.1856,4.195,4.2016,4.2104,4.2141,4.2206,4.2248,4.2332,4.2324,4.2441,4.2407,4.2453,4.2492,4.2496,4.2509,4.2498,4.2529,4.2585,4.2594,4.2521,4.2519,4.2518,0,4.1456,4.1593,4.1682,4.1726,4.185,4.189,4.1944,4.2031,4.2085,4.2168,4.2204,4.2294,4.2344,4.2414,4.248,4.2468,4.2592,4.2589,4.2627,4.2625,4.265,4.2648,4.2716,4.2678,4.2678,4.2678,4.2677,0,4.1506,4.1576,4.1682,4.1736,4.1818,4.1889,4.1968,4.2026,4.2104,4.2172,4.2223,4.2286,4.2369,4.2443,4.2496,4.2587,4.2608,4.2642,4.2655,4.2638,4.2634,4.267,4.2668,4.268,4.268,4.2679,4.2679,0,4.1513,4.1586,4.1688,4.1798,4.1828,4.1883,4.1979,4.2035,4.2093,4.2179,4.2204,4.2295,4.2386,4.2459,4.2577,4.2613,4.2708,4.2723,4.2679,4.2686,4.272,4.2717,4.2814,4.2832,4.278,4.278,4.2781,0,4.1541,4.1597,4.1714,4.1764,4.1818,4.1897,4.1954,4.2027,4.2084,4.2191,4.2235,4.233,4.2409,4.2552,4.2629,4.2721,4.2739,4.2767,4.2753,4.2735,4.2742,4.2738,4.2746,4.2768,4.2768,4.2768,4.2769,0,4.1583,4.1618,4.1697,4.1791,4.1857,4.1934,4.2012,4.205,4.2139,4.22,4.2294,4.2356,4.2479,4.2573,4.2673,4.273,4.2765,4.2773,4.2787,4.277,4.2743,4.2761,4.2684,4.277,4.277,4.277,4.277,4.277,4.1603,4.1657,4.1749,4.1837,4.1904,4.1977,4.2037,4.2104,4.2183,4.2289,4.2328,4.2425,4.2516,4.2655,4.2712,4.279,4.2794,4.2813,4.2818,4.2822,4.2822,4.273,4.2809,4.2809,4.2809,4.2809,4.2809,0,4.165,4.1713,4.1794,4.1903,4.1973,4.2001,4.209,4.2147,4.2232,4.2313,4.2392,4.2502,4.2594,4.268,4.2778,4.2824,4.2843,4.2847,4.2845,4.2858,4.2812,4.2791,4.2831,4.2831,4.2831,4.2831,4.2831,4.2831,4.1683,4.1776,4.1822,4.195,4.2013,4.2109,4.2158,4.2227,4.2293,4.2413,4.2491,4.2547,4.2632,4.2737,4.2824,4.2847,4.2881,4.2882,4.2909,4.2864,4.2861,4.2858,4.2839,4.2888,4.2888,4.295,4.2951,4.2951]}]]